Weather History for Ft Lauderdale, FL

Change the Weather History Date:

Sunday, November 20, 2011

  Actual Average Record
Temperature  
Mean Temperature 78 °F 75 °F  
Max Temperature 82 °F 81 °F 88 °F (1986)
Min Temperature 73 °F 69 °F 44 °F (1968)
Degree Days  
Heating Degree Days 0 0  
Month to date heating degree days 0 0  
Since 1 July heating degree days 0 0  
Cooling Degree Days 13 10  
Month to date cooling degree days 216 226  
Year to date cooling degree days 4491 4420  
Growing Degree Days 28 (Base 50)    
Moisture  
Dew Point 72 °F    
Average Humidity 81    
Maximum Humidity 93    
Minimum Humidity 69    
Precipitation  
Precipitation 0.06 in 0.09 in 1.41 in (1992)
Month to date precipitation 0.38 2.37  
Year to date precipitation 39.25 58.85  
Snow  
Snow 0.00 in - - ()
Month to date snowfall 0.0  
Since 1 July snowfall 0.0  
Since 1 September snowfall 0.0  
Snow Depth 0.00 in    
Sea Level Pressure  
Sea Level Pressure 30.16 in    
Wind  
Wind Speed 14 mph (East)    
Max Wind Speed 23 mph    
Max Gust Speed 29 mph    
Visibility 8 miles    
Events Rain    
T = Trace of Precipitation, MM = Missing Value Source: NWS Daily Summary

Daily Weather History Graph

Daily Weather History Graph

Search for Another Location

Airport:

Trip Planner

Search our weather history database for the weather conditions in past years. The results will help you decide how hot, cold, wet, or windy it might be!

Date:

Astronomy

Nov. 20, 2011 Rise Set
Actual Time 6:42 AM EST 5:29 PM EST
Civil Twilight 6:17 AM EST 5:54 PM EST
Nautical Twilight 5:49 AM EST 6:22 PM EST
Astronomical Twilight 5:22 AM EST 6:49 PM EST
Moon 1:37 AM EST (11/20) 1:53 PM EST (11/20)
Length of Visible Light 11h 36m
Length of Day
10h 47m
Waning Crescent, 27% of the Moon is Illuminated
Nov 20
Waning Crescent
Nov 25
New
Dec 2
First Quarter
Dec 10
Full
Dec 17
Last Quarter

Hourly Weather History & Observations

Time (EST) Temp. Heat Index Dew Point Humidity Pressure Visibility Wind Dir Wind Speed Gust Speed Precip Events Conditions
12:53 AM 77.0 °F - 68.0 °F 74% 30.15 in 10.0 mi East 13.8 mph - N/A   Mostly Cloudy
1:53 AM 77.0 °F - 70.0 °F 79% 30.14 in 10.0 mi East 15.0 mph - 0.00 in Rain Light Rain
2:53 AM 75.9 °F - 71.1 °F 85% 30.13 in 6.0 mi East 16.1 mph 23.0 mph 0.00 in Rain Light Rain
3:53 AM 75.9 °F - 72.0 °F 87% 30.12 in 6.0 mi ENE 12.7 mph - 0.00 in Rain Rain
4:53 AM 75.9 °F - 70.0 °F 82% 30.13 in 10.0 mi East 17.3 mph - 0.00 in Rain Rain
5:53 AM 73.0 °F - 70.0 °F 90% 30.15 in 4.0 mi East 17.3 mph 28.8 mph 0.00 in Rain Light Rain
6:53 AM 75.2 °F - 71.6 °F 89% 30.16 in 10.0 mi ENE 15.0 mph 19.6 mph N/A   Overcast
7:09 AM 75.2 °F - 71.6 °F 89% 30.16 in 2.5 mi East 20.7 mph 26.5 mph 0.02 in Rain Light Rain
7:14 AM 75.2 °F - 71.6 °F 89% 30.16 in 1.0 mi East 16.1 mph - 0.02 in Rain Light Rain
7:19 AM 75.2 °F - 71.6 °F 89% 30.17 in 3.0 mi East 12.7 mph - 0.02 in Rain Light Rain
7:53 AM 77.0 °F - 71.1 °F 82% 30.17 in 8.0 mi ENE 16.1 mph 25.3 mph 0.02 in   Overcast
8:18 AM 77.0 °F - 71.6 °F 83% 30.18 in 10.0 mi ENE 13.8 mph 24.2 mph N/A   Overcast
8:53 AM 77.0 °F - 71.1 °F 82% 30.20 in 10.0 mi ENE 17.3 mph 24.2 mph N/A   Overcast
9:53 AM 79.0 °F - 72.0 °F 79% 30.21 in 10.0 mi ENE 16.1 mph - N/A   Overcast
10:53 AM 79.0 °F - 71.1 °F 77% 30.20 in 10.0 mi ENE 13.8 mph - N/A   Overcast
11:34 AM 80.6 °F 84.6 °F 71.6 °F 74% 30.19 in 10.0 mi ENE 16.1 mph 24.2 mph N/A   Mostly Cloudy
11:53 AM 82.0 °F 86.7 °F 72.0 °F 71% 30.18 in 10.0 mi ENE 16.1 mph 21.9 mph N/A   Mostly Cloudy
12:53 PM 79.0 °F - 73.0 °F 82% 30.16 in 10.0 mi ESE 15.0 mph - 0.00 in   Mostly Cloudy
1:37 PM 75.2 °F - 71.6 °F 89% 30.15 in 2.5 mi SE 11.5 mph - 0.00 in Rain Light Rain
1:39 PM 75.2 °F - 71.6 °F 89% 30.15 in 3.0 mi SE 11.5 mph - 0.00 in Rain Light Rain
1:53 PM 75.0 °F - 71.1 °F 87% 30.15 in 7.0 mi SE 13.8 mph - 0.00 in   Overcast
2:00 PM 73.4 °F - 71.6 °F 94% 30.15 in 1.8 mi SE 13.8 mph - 0.01 in Rain Rain
2:09 PM 73.4 °F - 69.8 °F 88% 30.15 in 1.8 mi SE 10.4 mph - 0.02 in Rain Light Rain
2:16 PM 73.4 °F - 71.6 °F 94% 30.15 in 2.0 mi SSE 8.1 mph - 0.04 in Rain Rain
2:21 PM 73.4 °F - 71.6 °F 94% 30.15 in 5.0 mi SSE 6.9 mph - 0.04 in Rain Rain
2:53 PM 73.9 °F - 72.0 °F 93% 30.14 in 10.0 mi South 3.5 mph - 0.04 in   Overcast
3:18 PM 77.0 °F - 71.6 °F 83% 30.13 in 10.0 mi ENE 16.1 mph - N/A   Mostly Cloudy
3:53 PM 77.0 °F - 72.0 °F 84% 30.14 in 10.0 mi East 12.7 mph - 0.00 in   Mostly Cloudy
4:53 PM 77.0 °F - 72.0 °F 84% 30.15 in 10.0 mi East 8.1 mph - N/A   Partly Cloudy
5:53 PM 77.0 °F - 73.0 °F 88% 30.15 in 10.0 mi ENE 10.4 mph - N/A   Partly Cloudy
6:20 PM 77.0 °F - 73.4 °F 89% 30.16 in 9.0 mi ENE 9.2 mph - 0.00 in Rain Light Rain
6:25 PM 77.0 °F - 73.4 °F 89% 30.16 in 10.0 mi East 9.2 mph - 0.00 in Rain Light Rain
6:53 PM 77.0 °F - 73.0 °F 88% 30.17 in 10.0 mi East 9.2 mph - 0.00 in   Mostly Cloudy
7:19 PM 77.0 °F - 71.6 °F 83% 30.17 in 10.0 mi East 12.7 mph - N/A   Scattered Clouds
7:28 PM 77.0 °F - 71.6 °F 83% 30.17 in 10.0 mi East 11.5 mph - N/A   Mostly Cloudy
7:38 PM 77.0 °F - 71.6 °F 83% 30.17 in 10.0 mi East 11.5 mph - N/A   Scattered Clouds
7:53 PM 78.1 °F - 73.0 °F 84% 30.17 in 10.0 mi East 10.4 mph - N/A   Scattered Clouds
8:15 PM 77.0 °F - 71.6 °F 83% 30.17 in 10.0 mi East 12.7 mph - N/A   Mostly Cloudy
8:53 PM 78.1 °F - 72.0 °F 81% 30.18 in 10.0 mi East 15.0 mph - N/A   Overcast
9:25 PM 78.8 °F - 71.6 °F 78% 30.18 in 10.0 mi East 15.0 mph - N/A   Mostly Cloudy
9:33 PM 78.8 °F - 71.6 °F 78% 30.18 in 10.0 mi ENE 12.7 mph 21.9 mph N/A   Mostly Cloudy
9:40 PM 78.8 °F - 71.6 °F 78% 30.18 in 10.0 mi East 12.7 mph - N/A   Mostly Cloudy
9:53 PM 77.0 °F - 72.0 °F 84% 30.18 in 10.0 mi East 13.8 mph - N/A   Mostly Cloudy
10:53 PM 77.0 °F - 72.0 °F 84% 30.18 in 10.0 mi East 15.0 mph - N/A   Partly Cloudy
11:53 PM 77.0 °F - 72.0 °F 84% 30.17 in 10.0 mi ENE 10.4 mph - N/A   Mostly Cloudy